Tracking 19854 objects as of 22-Sep-2019
HD Live streaming from Space Station
objects crossing your sky now

SL-8 DEB

Track SL-8 DEB now!
10-day predictions


NORAD ID: 39701
Int'l Code: 1991-009DQ
Perigee: 1,475.0 km
Apogee: 1,684.9 km
Inclination: 74.0 °
Period: 117.6 minutes
Semi major axis: 7950 km
RCS: 0.0255 m2 (small)
Launch date: February 12, 1991
Source: Commonwealth of Independent States (former USSR) (CIS)
Launch site: PLESETSK MISSILE AND SPACE COMPLEX (PKMTR)

Note: This is SATELLITE DEBRIS
aabbcc
Your satellite tracking list
Your tracking list is empty




NASA's NSSDC Master Catalog

Two Line Element Set (TLE):
1 39701U 91009DQ  19263.68923705  .00000027  00000-0  36289-3 0  9990
2 39701  73.9854 255.7677 0132016 121.8653 355.4872 12.24541697261156
Source of the keplerian elements: AFSPC